Weather History for Burley, ID

Change the Weather History Date:

Wednesday, October 12, 2011

  Actual Average Record
Temperature  
Mean Temperature 49 °F 49 °F  
Max Temperature 60 °F 63 °F 84 °F (1950)
Min Temperature 38 °F 35 °F 20 °F (1986)
Degree Days  
Heating Degree Days 16 16  
Month to date heating degree days 142 170  
Since 1 July heating degree days 223 440  
Cooling Degree Days 0 0  
Month to date cooling degree days 7 0  
Year to date cooling degree days 397 365  
Moisture  
Dew Point 36 °F    
Average Humidity 58    
Maximum Humidity 85    
Minimum Humidity 31    
Precipitation  
Precipitation 0.00 in 0.03 in 0.73 in (1954)
Month to date precipitation 1.17 0.27  
Year to date precipitation 8.15 7.58  
Sea Level Pressure  
Sea Level Pressure 30.19 in    
Wind  
Wind Speed 6 mph (WSW)    
Max Wind Speed 14 mph    
Max Gust Speed 20 mph    
Visibility 10 miles    
Events      
T = Trace of Precipitation, MM = Missing Value Source: NWS Daily Summary

Daily Weather History Graph

Daily Weather History Graph

Search for Another Location

Airport:

Trip Planner

Search our weather history database for the weather conditions in past years. The results will help you decide how hot, cold, wet, or windy it might be!

Date:

Astronomy

Oct. 12, 2011 Rise Set
Actual Time 7:44 AM MDT 6:58 PM MDT
Civil Twilight 7:16 AM MDT 7:26 PM MDT
Nautical Twilight 6:43 AM MDT 7:58 PM MDT
Astronomical Twilight 6:10 AM MDT 8:31 PM MDT
Moon 6:59 PM MDT (10/12) 8:25 AM MDT (10/12)
Length of Visible Light 12h 10m
Length of Day
11h 13m
Full, 100% of the Moon is Illuminated
Oct 12
Full
Oct 19
Last Quarter
Oct 26
New
Nov 2
First Quarter
Nov 10
Full

Hourly Weather History & Observations

Time (MDT) Temp. Windchill Dew Point Humidity Pressure Visibility Wind Dir Wind Speed Gust Speed Precip Events Conditions
12:53 AM 42.8 °F 37.0 °F 35.6 °F 76% 30.15 in 10.0 mi SSW 10.4 mph - N/A   Clear
1:53 AM 41.0 °F 35.8 °F 35.1 °F 79% 30.14 in 10.0 mi SW 8.1 mph - N/A   Clear
2:53 AM 39.0 °F 34.0 °F 34.0 °F 82% 30.14 in 10.0 mi SW 6.9 mph - N/A   Clear
3:53 AM 39.0 °F 34.0 °F 34.0 °F 82% 30.17 in 10.0 mi SW 6.9 mph - N/A   Clear
4:53 AM 37.9 °F 34.4 °F 34.0 °F 86% 30.18 in 10.0 mi SW 4.6 mph - N/A   Clear
5:53 AM 39.0 °F 34.0 °F 33.1 °F 79% 30.19 in 10.0 mi SW 6.9 mph - N/A   Clear
6:53 AM 39.9 °F 32.5 °F 34.0 °F 79% 30.20 in 10.0 mi SW 12.7 mph - N/A   Clear
8:53 AM 42.1 °F 38.4 °F 35.1 °F 76% 30.24 in 10.0 mi WSW 5.8 mph - N/A   Clear
9:53 AM 48.0 °F - 37.9 °F 68% 30.24 in 10.0 mi SW 3.5 mph - N/A   Clear
10:53 AM 53.1 °F - 37.0 °F 55% 30.24 in 10.0 mi West 9.2 mph - N/A   Clear
11:53 AM 55.9 °F - 37.9 °F 51% 30.23 in 10.0 mi West 9.2 mph - N/A   Clear
12:53 PM 57.0 °F - 37.9 °F 49% 30.22 in 10.0 mi West 8.1 mph - N/A   Clear
1:53 PM 59.0 °F - 37.9 °F 46% 30.20 in 10.0 mi WNW 6.9 mph - N/A   Clear
3:53 PM 60.1 °F - 36.0 °F 41% 30.17 in 10.0 mi WNW 8.1 mph 16.1 mph N/A   Clear
4:53 PM 59.0 °F - 28.0 °F 31% 30.18 in 10.0 mi WNW 12.7 mph - N/A   Clear
5:53 PM 57.0 °F - 30.9 °F 37% 30.18 in 10.0 mi West 4.6 mph - N/A   Clear
6:53 PM 53.1 °F - 36.0 °F 52% 30.17 in 10.0 mi Calm Calm - N/A   Clear
7:53 PM 46.4 °F 45.2 °F 35.6 °F 66% 30.19 in 10.0 mi South 3.5 mph - N/A   Clear
8:53 PM 44.1 °F - 37.0 °F 76% 30.18 in 10.0 mi Calm Calm - N/A   Clear
9:53 PM 44.1 °F 42.5 °F 37.9 °F 79% 30.18 in 10.0 mi South 3.5 mph - N/A   Clear
10:53 PM 46.0 °F - 39.0 °F 76% 30.16 in 10.0 mi Calm Calm - N/A   Overcast
11:53 PM 44.6 °F - 39.2 °F 81% 30.20 in 10.0 mi Calm Calm - N/A   Overcast